| time (UTC) | temp F | wind direction | speed MPH | gust MPH | rain 1hr in | rain 24hr in | rain mn in | humidity % | barometer mb |
| 20260507231530 | 65 | 308 | 14.0 | 21.0 | 0.00 | 0.00 | 0.00 | 38 | 1006.9 |
| 20260507230030 | 65 | 338 | 14.0 | 25.0 | 0.00 | 0.00 | 0.00 | 34 | 1007.0 |
| 20260507224529 | 66 | 328 | 16.0 | 22.0 | 0.00 | 0.00 | 0.00 | 32 | 1007.0 |
| 20260507223027 | 67 | 355 | 7.0 | 16.0 | 0.00 | 0.00 | 0.00 | 34 | 1007.0 |
| 20260507221532 | 69 | 272 | 8.0 | 19.0 | 0.00 | 0.00 | 0.00 | 30 | 1007.1 |
| 20260507220034 | 68 | 13 | 11.0 | 16.0 | 0.00 | 0.00 | 0.00 | 34 | 1007.3 |
| 20260507214521 | 69 | 315 | 7.0 | 15.0 | 0.00 | 0.00 | 0.00 | 29 | 1007.8 |
| 20260507213027 | 69 | 278 | 8.0 | 21.0 | 0.00 | 0.00 | 0.00 | 29 | 1008.0 |
| 20260507211518 | 69 | 252 | 6.0 | 18.0 | 0.00 | 0.00 | 0.00 | 32 | 1008.3 |
| 20260507210018 | 70 | 262 | 11.0 | 19.0 | 0.00 | 0.00 | 0.00 | 29 | 1008.8 |
| 20260507204511 | 68 | 250 | 13.0 | 20.0 | 0.00 | 0.00 | 0.00 | 31 | 1009.1 |
| 20260507203009 | 69 | 298 | 13.0 | 19.0 | 0.00 | 0.00 | 0.00 | 32 | 1009.4 |
| 20260507201507 | 69 | 294 | 8.0 | 15.0 | 0.00 | 0.00 | 0.00 | 32 | 1009.6 |
| 20260507200007 | 68 | 273 | 5.0 | 15.0 | 0.00 | 0.00 | 0.00 | 34 | 1009.9 |
| 20260507194504 | 69 | 286 | 3.0 | 8.0 | 0.00 | 0.00 | 0.00 | 30 | 1010.1 |
| 20260507193100 | 68 | 16 | 3.0 | 12.0 | 0.00 | 0.00 | 0.00 | 31 | 1010.2 |
| 20260507191603 | 68 | 5 | 4.0 | 8.0 | 0.00 | 0.00 | 0.00 | 39 | 1010.5 |
| 20260507190107 | 70 | 200 | 5.0 | 14.0 | 0.00 | 0.00 | 0.00 | 29 | 1010.7 |
| 20260507184555 | 69 | 209 | 6.0 | 16.0 | 0.00 | 0.00 | 0.00 | 31 | 1011.0 |
| 20260507183111 | 66 | 149 | 1.0 | 8.0 | 0.00 | 0.00 | 0.00 | 31 | 1011.3 |
| 20260507181556 | 66 | 142 | 4.0 | 9.0 | 0.00 | 0.00 | 0.00 | 33 | 1011.5 |
| 20260507180046 | 67 | 254 | 5.0 | 9.0 | 0.00 | 0.00 | 0.00 | 34 | 1012.0 |
| 20260507174545 | 66 | 159 | 8.0 | 14.0 | 0.00 | 0.05 | 0.00 | 32 | 1012.0 |
| 20260507173046 | 65 | 196 | 2.0 | 8.0 | 0.00 | 0.05 | 0.00 | 35 | 1012.5 |
| 20260507171535 | 64 | 150 | 2.0 | 11.0 | 0.00 | 0.05 | 0.00 | 33 | 1012.7 |
| 20260507170031 | 63 | 180 | 1.0 | 7.0 | 0.00 | 0.14 | 0.00 | 36 | 1013.2 |
| 20260507164535 | 60 | 243 | 4.0 | 9.0 | 0.00 | 0.14 | 0.00 | 37 | 1013.3 |
| 20260507163024 | 58 | 199 | 5.0 | 11.0 | 0.00 | 0.14 | 0.00 | 41 | 1013.4 |
| 20260507161519 | 57 | 263 | 9.0 | 16.0 | 0.00 | 0.14 | 0.00 | 41 | 1013.5 |
| 20260507160019 | 56 | 295 | 12.0 | 18.0 | 0.00 | 0.21 | 0.00 | 42 | 1013.7 |
| 20260507154515 | 56 | 232 | 6.0 | 12.0 | 0.00 | 0.21 | 0.00 | 40 | 1013.9 |
| 20260507153014 | 56 | 279 | 4.0 | 7.0 | 0.00 | 0.21 | 0.00 | 46 | 1014.3 |
| 20260507151513 | 56 | 258 | 3.0 | 9.0 | 0.00 | 0.21 | 0.00 | 44 | 1014.3 |
| 20260507150010 | 55 | 242 | 4.0 | 9.0 | 0.00 | 0.22 | 0.00 | 42 | 1014.3 |
| 20260507144507 | 54 | 251 | 3.0 | 11.0 | 0.00 | 0.22 | 0.00 | 44 | 1014.3 |
| 20260507143006 | 53 | 254 | 6.0 | 11.0 | 0.00 | 0.22 | 0.00 | 43 | 1014.5 |
| 20260507141505 | 52 | 300 | 3.0 | 8.0 | 0.00 | 0.22 | 0.00 | 46 | 1014.7 |
| 20260507140002 | 52 | 12 | 2.0 | 5.0 | 0.00 | 0.22 | 0.00 | 47 | 1014.7 |
| 20260507134501 | 53 | 267 | 6.0 | 13.0 | 0.00 | 0.22 | 0.00 | 42 | 1014.6 |
| 20260507133100 | 53 | 261 | 10.0 | 17.0 | 0.00 | 0.22 | 0.00 | 41 | 1014.4 |
| 20260507131605 | 52 | 275 | 12.0 | 27.0 | 0.00 | 0.22 | 0.00 | 42 | 1014.3 |
| 20260507130056 | 51 | 267 | 14.0 | 25.0 | 0.00 | 0.22 | 0.00 | 42 | 1014.2 |
| 20260507124603 | 51 | 256 | 13.0 | 26.0 | 0.00 | 0.23 | 0.00 | 42 | 1014.0 |
| 20260507123052 | 50 | 282 | 15.0 | 23.0 | 0.00 | 0.23 | 0.00 | 43 | 1013.9 |
| 20260507121550 | 49 | 264 | 11.0 | 20.0 | 0.00 | 0.23 | 0.00 | 43 | 1014.1 |
| 20260507120049 | 49 | 273 | 12.0 | 21.0 | 0.00 | 0.23 | 0.00 | 44 | 1014.5 |
| 20260507114602 | 48 | 301 | 8.0 | 22.0 | 0.00 | 0.23 | 0.00 | 45 | 1014.6 |
| 20260507113101 | 49 | 282 | 16.0 | 27.0 | 0.00 | 0.23 | 0.00 | 42 | 1014.2 |
| 20260507111542 | 49 | 257 | 16.0 | 25.0 | 0.00 | 0.23 | 0.00 | 42 | 1014.2 |
| 20260507110037 | 49 | 263 | 15.0 | 25.0 | 0.00 | 0.23 | 0.00 | 41 | 1014.3 |
| 20260507104541 | 49 | 265 | 9.0 | 18.0 | 0.00 | 0.23 | 0.00 | 42 | 1014.4 |
| 20260507103033 | 48 | 259 | 9.0 | 16.0 | 0.00 | 0.23 | 0.00 | 46 | 1014.6 |
| 20260507101531 | 48 | 293 | 12.0 | 21.0 | 0.00 | 0.23 | 0.00 | 45 | 1014.4 |
| 20260507100028 | 41 | 299 | 8.0 | 14.0 | 0.00 | 0.23 | 0.00 | 56 | 1015.0 |
| 20260507094528 | 43 | 175 | 5.0 | 8.0 | 0.00 | 0.23 | 0.00 | 61 | 1015.1 |
| 20260507093028 | 46 | 279 | 6.0 | 13.0 | 0.00 | 0.23 | 0.00 | 49 | 1015.0 |
| 20260507091521 | 43 | 279 | 10.0 | 16.0 | 0.00 | 0.23 | 0.00 | 56 | 1014.9 |
| 20260507090018 | 34 | 250 | 3.0 | 5.0 | 0.00 | 0.23 | 0.00 | 79 | 1015.1 |
| 20260507084516 | 33 | 238 | 1.0 | 4.0 | 0.00 | 0.23 | 0.00 | 81 | 1015.5 |
| 20260507083016 | 34 | 117 | 1.0 | 5.0 | 0.00 | 0.23 | 0.00 | 77 | 1015.5 |
| 20260507081520 | 36 | 9 | 1.0 | 5.0 | 0.00 | 0.23 | 0.00 | 74 | 1015.4 |
| 20260507080012 | 43 | 38 | 4.0 | 12.0 | 0.00 | 0.23 | 0.00 | 56 | 1015.6 |
| 20260507074510 | 42 | 261 | 8.0 | 10.0 | 0.00 | 0.23 | 0.00 | 53 | 1015.6 |
| 20260507073006 | 38 | 259 | 4.0 | 9.0 | 0.00 | 0.23 | 0.00 | 64 | 1015.9 |
| 20260507071600 | 34 | 255 | 3.0 | 6.0 | 0.00 | 0.23 | 0.00 | 80 | 1016.2 |
| 20260507070105 | 33 | 252 | 0.0 | 4.0 | 0.00 | 0.23 | 0.00 | 84 | 1016.4 |
| 20260507064555 | 33 | 161 | 6.0 | 9.0 | 0.00 | 0.23 | 0.00 | 83 | 1016.4 |
| 20260507063052 | 33 | 185 | 4.0 | 6.0 | 0.00 | 0.23 | 0.00 | 83 | 1016.6 |
| 20260507061548 | 34 | 279 | 0.0 | 5.0 | 0.00 | 0.23 | 0.00 | 82 | 1016.8 |
| 20260507060045 | 34 | 221 | 0.0 | 3.0 | 0.00 | 0.23 | 0.00 | 83 | 1017.0 |
| 20260507054544 | 34 | 246 | 3.0 | 6.0 | 0.00 | 0.23 | 0.23 | 83 | 1017.0 |
| 20260507053043 | 34 | 250 | 1.0 | 4.0 | 0.00 | 0.23 | 0.23 | 84 | 1017.1 |
| 20260507051542 | 34 | 250 | 2.0 | 6.0 | 0.00 | 0.23 | 0.23 | 84 | 1017.4 |
| 20260507050042 | 34 | 245 | 2.0 | 4.0 | 0.00 | 0.23 | 0.23 | 83 | 1017.6 |
| 20260507044539 | 35 | 245 | 0.0 | 5.0 | 0.00 | 0.23 | 0.23 | 82 | 1018.1 |
| 20260507043053 | 35 | 229 | 2.0 | 5.0 | 0.00 | 0.23 | 0.23 | 80 | 1018.2 |
| 20260507041537 | 35 | 209 | 2.0 | 7.0 | 0.00 | 0.23 | 0.23 | 80 | 1018.1 |
| 20260507040036 | 35 | 232 | 3.0 | 6.0 | 0.00 | 0.23 | 0.23 | 81 | 1018.4 |
| 20260507034537 | 35 | 253 | 4.0 | 7.0 | 0.00 | 0.23 | 0.23 | 81 | 1018.5 |
| 20260507033038 | 36 | 206 | 4.0 | 7.0 | 0.00 | 0.23 | 0.23 | 78 | 1018.4 |
| 20260507031534 | 36 | 209 | 4.0 | 7.0 | 0.00 | 0.23 | 0.23 | 77 | 1018.4 |
| 20260507030034 | 36 | 204 | 4.0 | 6.0 | 0.00 | 0.23 | 0.23 | 78 | 1018.5 |
| 20260507024533 | 37 | 187 | 3.0 | 7.0 | 0.00 | 0.23 | 0.23 | 76 | 1018.5 |
| 20260507023034 | 37 | 186 | 3.0 | 8.0 | 0.00 | 0.23 | 0.23 | 75 | 1018.5 |
| 20260507021534 | 38 | 141 | 3.0 | 5.0 | 0.00 | 0.23 | 0.23 | 72 | 1018.3 |
| 20260507020046 | 39 | 163 | 3.0 | 7.0 | 0.00 | 0.23 | 0.23 | 70 | 1018.3 |
| 20260507014534 | 40 | 166 | 4.0 | 9.0 | 0.00 | 0.24 | 0.23 | 67 | 1018.3 |
| 20260507013031 | 42 | 184 | 4.0 | 10.0 | 0.00 | 0.24 | 0.23 | 65 | 1018.3 |
| 20260507011541 | 42 | 148 | 5.0 | 11.0 | 0.00 | 0.24 | 0.23 | 64 | 1018.3 |
| 20260507010034 | 43 | 184 | 7.0 | 13.0 | 0.00 | 0.25 | 0.23 | 61 | 1018.3 |
| 20260507004531 | 43 | 170 | 7.0 | 14.0 | 0.00 | 0.25 | 0.23 | 63 | 1018.3 |
| 20260507003029 | 42 | 215 | 7.0 | 11.0 | 0.00 | 0.25 | 0.23 | 67 | 1018.5 |
| 20260507001600 | 42 | 226 | 5.0 | 13.0 | 0.00 | 0.25 | 0.23 | 64 | 1018.5 |
| 20260507000032 | 43 | 202 | 8.0 | 12.0 | 0.00 | 0.26 | 0.23 | 63 | 1018.7 |
| 20260506234527 | 44 | 234 | 5.0 | 13.0 | 0.00 | 0.26 | 0.23 | 61 | 1018.9 |
| 20260506233027 | 44 | 218 | 7.0 | 12.0 | 0.00 | 0.26 | 0.23 | 64 | 1019.0 |